Погода в Шайковке

Россия / Калужская область     54°14′45″N   34°22′48″E
темп.,
°C
ветер,
м/с
пор.,
м/с
влажн.,
%
обл.,
%
осадки,
мм/ч
давл.,
гПа
погр.,
м
25 июля, вс
вс2500:00+12в22694 0.0 101815
03:00+11всв11775 0.0 101910
06:00+12вюв227536 0.0 101915
09:00+18вюв22596 0.0 1020349
12:00+22вюв115089 0.0 10201054
15:00+23всв124739 0.0 10201271
18:00+21юв3463100 0.0 1020128
21:00+18ююв356472 0.0 102182
26 июля, пн
пн2600:00+17ююв347098 0.0 102282
03:00+17ю2374100 0.1 102273
06:00+16ююз238347 0.0 102364
09:00+21ююз236835 0.0 1023345
12:00+25ююз225149 0.0 10221407
15:00+25юв2252100 0.0 1022623
18:00+22ю346266 0.0 1022101
21:00+19ю226973 0.0 102223
27 июля, вт
вт2700:00+17ююз2282100 0.0 102219
03:00+16ююз228628 0.0 102319
06:00+16ююз23847 0.1 102359
09:00+22юз3464100 0.1 1022428
12:00+26юз34495 0.0 10211246
15:00+27юз34488 0.0 10201328
18:00+26юз4653100 0.0 1019396
21:00+20юв3366100 0.1 101925
28 июля, ср
ср2800:00+17юв3586100 0.8 101978
03:00+17ю2288100 0.9 101839
06:00+16зюз1291100 0.5 101763
09:00+16в4894100 1.4 1015199
12:00+17ююв51192100 0.3 1013526
15:00+18ююв41097100 1.3 1011628
18:00+21зюз368798 1.6 1009615
21:00+18з399712 2.3 1009297
29 июля, чт
чт2900:00+17зсз499846 0.1 1009355
03:00+17сз489550 0.1 1009450
06:00+15зсз389938 0.0 1010292
09:00+19сз468798 0.0 1010558
12:00+23сз4668100 0.0 1011999
15:00+26сз475295 0.0 10102001
18:00+25сз365915 0.0 1010685
21:00+20зсз117545 0.0 101111